Flag for U.S.A. Weather past 2 weeks in Bridgeport, Connecticut, U.S.A.

Now
22 °F

Sunny.


Feels Like: 12 °F
Forecast: 9 / 25 °F
Wind: 9 mph from Southwest

Location: Sikorsky Memorial Airport

Current Time: Mar 6, 2015 at 4:11:18 PM

Latest Report: Mar 6, 2015 at 2:52 PM


Visibility: 10 mi

Pressure: 30.46 "Hg

Humidity: 57%

Dew point: 9 °F

Location of BridgeportLocation

Historic Weather in Bridgeport — Graph

°F

Bridgeport temperature yesterday

Maximum temperature yesterday: 37 °F (at 12:52 AM)
Minimum temperature yesterday: 19 °F (at 11:52 PM)
Average temperature yesterday: 26 °F

Past Weeks' High & Low Weather Summary

 TemperatureHumidityPressure
High38 °F (Mar 4, 12:52 PM)100% (Feb 21, 8:52 PM)30.80 "Hg (Feb 21, 8:52 PM)
Low1 °F (Feb 20, 5:52 AM)31% (Feb 23, 4:52 PM)29.72 "Hg (Feb 19, 2:52 PM)
Average22 °F68%30.22 "Hg
* Reported Feb 19 2:52 PM — Mar 6 2:52 PM, Bridgeport, Weather by CustomWeather, © 2015

Note: Actual official high and low records may vary slightly from our data, if they occured in-between our weather recording intervals... More about our weather records

Advertising

Bridgeport weather history for previous 24 hours

 ConditionsComfort  
Time TempWeatherWind HumidityBarometerVisibility
2:52 PM
Fri, Mar 6
22 °FSunny.9 mph57%30.46 "Hg10 mi
1:52 PM21 °FSunny.10 mph57%30.47 "Hg10 mi
12:52 PM21 °FSunny.8 mph52%30.50 "Hg10 mi
11:52 AM21 °FSunny.5 mph45%30.52 "Hg10 mi
10:52 AM20 °FSunny.No wind45%30.53 "Hg10 mi
9:52 AM19 °FSunny.7 mph47%30.53 "Hg10 mi
8:52 AM17 °FSunny.8 mph54%30.54 "Hg10 mi
7:52 AM14 °FSunny.8 mph58%30.53 "Hg10 mi
6:52 AM10 °FSunny.6 mph67%30.51 "Hg10 mi
5:52 AM10 °FClear.5 mph61%30.50 "Hg10 mi
4:52 AM11 °FClear.7 mph59%30.47 "Hg10 mi
3:52 AM13 °FClear.8 mph56%30.43 "Hg10 mi
2:52 AM14 °FClear.17 mph53%30.41 "Hg10 mi
1:52 AM15 °FClear.18 mph51%30.41 "Hg10 mi
12:52 AM17 °FClear.18 mph54%30.38 "Hg10 mi
11:52 PM
Thu, Mar 5
19 °FClear.18 mph57%30.34 "Hg10 mi
10:52 PM20 °FClear.12 mph55%30.32 "Hg10 mi
9:52 PM21 °FPassing clouds.15 mph52%30.31 "Hg10 mi
8:52 PM22 °FOvercast.13 mph55%30.28 "Hg10 mi
7:52 PM22 °FMostly cloudy.14 mph57%30.24 "Hg10 mi
6:52 PM22 °FOvercast.9 mph62%30.23 "Hg10 mi
5:52 PM20 °FOvercast.3 mph85%30.19 "Hg10 mi
4:58 PM20 °FLight snow. Ice fog.8 mph89%30.19 "Hg1 mi
Weather by CustomWeather, © 2015

See weather overviewHow to use our weather pages